Location: Bottenau
(48.5138°N, 8.0462°E)
Time: 20:05:46
(UTC+00:00)

Meteor 1-20 Rocket - Pass Details

Date: 18 April 2021
Orbit: 819 x 892 km, 81.2° (Epoch: 18 May)

Event Time Altitude Azimuth Distance (km) Brightness Sun altitude
Rises 22:21:20 0° 349° (N) 3,509 8.6 -28.6°
Reaches altitude 10° 22:23:50 10° 353° (N) 2,559 7.6 -28.7°
Enters shadow 22:29:24 67° 60° (ENE) 950 4.4 -29.0°
